Location: Killam
(52.7910°N, 111.8608°W)
Time: 08:30:16
(UTC+00:00)

NOAA 15 - Pass Details

Date: 19 December 2025
Orbit: 793 x 809 km, 98.5° (Epoch: 24 January)

Event Time Altitude Azimuth Distance (km) Brightness Sun altitude
Rises 00:08:42 0° 119° (ESE) 3,317 7.5 -7.8°
Reaches altitude 10° 00:11:28 10° 106° (ESE) 2,388 6.6 -8.2°
Maximum altitude 00:15:30 23° 55° (NE) 1,666 5.7 -8.7°
Drops below altitude 10° 00:19:32 10° 5° (N) 2,391 6.8 -9.3°
Sets 00:22:17 0° 352° (N) 3,323 7.6 -9.7°
